Weather in Novobeysugskaya

Russia / Krasnodar Krai     45°28′00″N   39°53′15″E
temp.,
°C
wind,
m/s
gust,
m/s
humid.,
%
clouds,
%
prec.,
mm/h
press.,
hPa
HPBL,
m
26 october, tue
tue2600:00+5ne227419 0.0 103224
03:00+3ne35778 0.0 103395
06:00+2ene37662 0.0 1033167
09:00+4ene57550 0.0 1034356
12:00+8ene44460 0.0 1033858
15:00+9ene45420 0.0 1031943
18:00+5ene47540 0.0 1031158
21:00+4ene410570 0.0 1031237
27 october, wed
wed2700:00+3ene410620 0.0 1030222
03:00+3ene410675 0.0 1029201
06:00+2e4107257 0.0 1028203
09:00+5e57630 0.0 1028271
12:00+11e45480 0.0 1026606
15:00+13e34410 0.0 1024777
18:00+9ne22550 0.0 102414
21:00+7ne11610 0.0 102310
28 october, thu
thu2800:00+6wnw22640 0.0 102416
03:00+5wnw22670 0.0 102412
06:00+4wnw2269100 0.0 102511
09:00+7w2357100 0.0 1026164
12:00+11w3443100 0.0 1025571
15:00+11wnw3437100 0.0 1024725
18:00+9w2345100 0.0 102549
21:00+8wsw365460 0.0 1024111
29 october, fri
fri2900:00+6wsw36705 0.0 1024115
03:00+5wsw387984 0.0 1024153
06:00+7wsw41072100 0.0 1024236
09:00+9wsw51068100 0.0 1025348
12:00+12w4870100 0.0 1025558
15:00+14nw356756 0.0 1025938
18:00+11sw1177100 0.1 102710
21:00+11ne4873100 0.1 1028427
30 october, sat
sat3000:00+8ne49780 0.0 1030259
03:00+6ene410760 0.0 1031256
06:00+5ene511760 0.0 1032309
09:00+6ene711700 0.0 1033547
12:00+10e710490 0.0 1033837
15:00+11ene810430 0.0 1032925
18:00+8ene612540 0.0 1033516
21:00+6ene713620 0.0 1033423